Weather History for KLBF - March, 2015

Change the Weather History Date:

Thursday, March 26, 2015

  Actual Average Record
Temperature  
Mean Temperature 39 °F 41 °F  
Max Temperature 60 °F 56 °F 86 °F (2012)
Min Temperature 17 °F 27 °F -5 °F (1965)
Degree Days  
Heating Degree Days 26 24  
Month to date heating degree days 593 721  
Since 1 July heating degree days 5482 5749  
Cooling Degree Days 0 0  
Month to date cooling degree days 0 0  
Year to date cooling degree days 0 0  
Moisture  
Dew Point 23 °F    
Average Humidity 60    
Maximum Humidity 92    
Minimum Humidity 28    
Precipitation  
Precipitation T in 0.04 in 1.10 in (1949)
Month to date precipitation 0.01 0.82  
Year to date precipitation 0.75 1.66  
Snow  
Snow 0.00 in 0.20 in 5.00 in (1944)
Month to date snowfall 0.2 3.7  
Since 1 July snowfall 19.1 24.6  
Snow Depth 0.00 in    
Sea Level Pressure  
Sea Level Pressure 30.20 in    
Wind  
Wind Speed 11 mph (NNW)    
Max Wind Speed 29 mph    
Max Gust Speed 40 mph    
Visibility 10 miles    
Events      
T = Trace of Precipitation, MM = Missing Value Source: NWS Daily Summary

Daily Weather History Graph

Daily Weather History Graph

Search for Another Location

Airport or City:

Trip Planner

Search our weather history database for the weather conditions in past years. The results will help you decide how hot, cold, wet, or windy it might be!

Date:

Astronomy

Mar. 26, 2015 Rise Set
Actual Time 7:36 AM CDT 8:01 PM CDT
Civil Twilight 7:08 AM CDT 8:28 PM CDT
Nautical Twilight 6:36 AM CDT 9:01 PM CDT
Astronomical Twilight 6:03 AM CDT 9:34 PM CDT
Moon 12:14 PM CDT (3/26) 2:06 AM CDT (3/26)
Length of Visible Light 13h 19m
Length of Day
12h 24m
Waxing Crescent, 44% of the Moon is Illuminated
Mar 26
Waxing Crescent
Mar 27
First Quarter
Apr 4
Full
Apr 11
Last Quarter
Apr 18
New

Hourly Weather History & Observations

Time (CDT) Temp. Windchill Dew Point Humidity Pressure Visibility Wind Dir Wind Speed Gust Speed Precip Events Conditions
12:53 AM 21.9 °F - 18.0 °F 85% 30.32 in 10.0 mi Calm Calm - N/A   Clear
1:53 AM 23.0 °F - 17.1 °F 78% 30.31 in 10.0 mi Calm Calm - N/A   Clear
2:53 AM 19.9 °F - 16.0 °F 85% 30.31 in 10.0 mi Calm Calm - N/A   Clear
3:53 AM 19.9 °F - 15.1 °F 81% 30.29 in 10.0 mi Calm Calm - N/A   Clear
4:53 AM 19.0 °F 13.9 °F 15.1 °F 85% 30.28 in 10.0 mi NNW 3.5 mph - N/A   Clear
5:53 AM 19.0 °F - 15.1 °F 85% 30.27 in 10.0 mi Calm Calm - N/A   Clear
6:53 AM 21.0 °F - 18.0 °F 88% 30.27 in 10.0 mi Calm Calm - N/A   Clear
7:53 AM 21.9 °F - 19.0 °F 89% 30.27 in 10.0 mi Calm Calm - N/A   Overcast
8:53 AM 28.9 °F 25.2 °F 23.0 °F 78% 30.25 in 10.0 mi SSE 3.5 mph - N/A   Overcast
9:53 AM 37.0 °F 29.8 °F 25.0 °F 62% 30.22 in 10.0 mi South 10.4 mph - N/A   Overcast
10:53 AM 42.1 °F 35.7 °F 24.1 °F 49% 30.19 in 10.0 mi SSW 11.5 mph - N/A   Overcast
11:53 AM 48.0 °F - 26.1 °F 42% 30.14 in 10.0 mi SW 9.2 mph - N/A   Overcast
12:53 PM 53.6 °F - 26.6 °F 35% 30.07 in 10.0 mi West 9.2 mph - N/A   Partly Cloudy
1:53 PM 57.0 °F - 26.1 °F 30% 30.08 in 10.0 mi NW 26.5 mph 33.4 mph N/A   Overcast
2:53 PM 57.0 °F - 25.0 °F 29% 30.07 in 10.0 mi NNW 23.0 mph 33.4 mph N/A   Overcast
3:53 PM 57.2 °F - 26.6 °F 31% 30.03 in 10.0 mi NW 24.2 mph 33.4 mph N/A   Mostly Cloudy
4:53 PM 57.0 °F - 26.1 °F 30% 30.08 in 10.0 mi NNW 21.9 mph 28.8 mph 0.00 in   Overcast
5:53 PM 55.0 °F - 27.0 °F 34% 30.10 in 10.0 mi NNW 20.7 mph 33.4 mph N/A   Mostly Cloudy
6:53 PM 50.0 °F - 28.9 °F 44% 30.13 in 10.0 mi North 20.7 mph 29.9 mph 0.00 in   Overcast
7:53 PM 45.0 °F 37.9 °F 28.0 °F 52% 30.19 in 10.0 mi NNE 16.1 mph 26.5 mph N/A   Overcast
8:53 PM 39.9 °F 32.5 °F 28.9 °F 65% 30.22 in 10.0 mi NE 12.7 mph - N/A   Overcast
9:53 PM 37.0 °F 29.8 °F 28.0 °F 70% 30.24 in 10.0 mi ENE 10.4 mph - N/A   Overcast
10:53 PM 36.0 °F 28.5 °F 28.0 °F 73% 30.24 in 10.0 mi ENE 10.4 mph - N/A   Overcast
11:53 PM 34.0 °F 25.0 °F 27.0 °F 75% 30.24 in 10.0 mi ENE 12.7 mph - N/A   Overcast